Location: Angwan Shehu
(11.2514°N, 7.4613°E)
Time: 03:56:02
(UTC+00:00)

SR - All Passes

Search period start: 14 April 2021 00:00
Search period end: 24 April 2021 00:00
Orbit: 573 x 882 km, 66.7° (Epoch: 12 April)

Date Brightness Start Highest point End Pass type
(mag) Time Alt. Az. Time Alt. Az. Time Alt. Az.
14 Apr - 06:19:51 10° SSE 06:23:51 24° ESE 06:28:06 10° NE daylight
14 Apr - 08:01:37 10° WSW 08:05:40 23° WNW 08:10:01 10° NNW daylight
14 Apr - 18:39:48 10° NNW 18:45:04 55° WSW 18:49:53 10° S visible
15 Apr - 07:10:49 10° SSW 07:15:48 57° WNW 07:21:14 10° N daylight
15 Apr - 17:50:03 10° N 17:55:23 57° ENE 18:00:14 10° SSE daylight
16 Apr - 06:21:11 10° S 06:26:06 56° ESE 06:31:29 10° NNE daylight
16 Apr - 08:07:42 10° WNW 08:08:23 10° WNW 08:09:04 10° NW daylight
16 Apr - 17:01:17 10° NNE 17:05:29 23° ENE 17:09:26 10° ESE daylight
16 Apr - 18:43:11 10° NW 18:47:18 23° WSW 18:51:11 10° SSW visible
17 Apr - 05:32:42 10° SSE 05:36:33 22° ESE 05:40:38 10° ENE daylight
17 Apr - 07:14:05 10° WSW 07:18:21 26° WNW 07:22:54 10° N daylight
17 Apr - 17:52:28 10° NNW 17:57:46 61° WSW 18:02:35 10° S visible
18 Apr - 06:23:27 10° SSW 06:28:28 63° WNW 06:33:59 10° NNE daylight
18 Apr - 17:02:48 10° N 17:08:03 51° ENE 17:12:50 10° SE daylight
19 Apr - 05:33:53 10° S 05:38:48 51° ESE 05:44:08 10° NNE daylight
19 Apr - 07:19:17 10° W 07:21:01 11° WNW 07:22:48 10° NW daylight
19 Apr - 16:14:11 10° NNE 16:18:08 21° ENE 16:21:52 10° ESE daylight
19 Apr - 17:55:44 10° NW 18:00:01 25° WSW 18:04:01 10° SSW visible
20 Apr - 04:45:34 10° SSE 04:49:15 20° ESE 04:53:09 10° ENE visible
20 Apr - 06:26:35 10° SW 06:31:00 28° WNW 06:35:44 10° N daylight
20 Apr - 17:05:09 10° NNW 17:10:27 67° WSW 17:15:17 10° SSE daylight
21 Apr - 05:36:04 10° SSW 05:41:09 70° WNW 05:46:43 10° NNE daylight
21 Apr - 16:15:34 10° N 16:20:43 46° ENE 16:25:25 10° SE daylight
22 Apr - 04:46:37 10° S 04:51:29 46° ESE 04:56:47 10° NE visible
22 Apr - 06:31:20 10° W 06:33:40 13° WNW 06:36:05 10° NW daylight
22 Apr - 15:27:07 10° NNE 15:30:47 19° ENE 15:34:16 10° ESE daylight
22 Apr - 17:08:18 10° NW 17:12:43 28° WSW 17:16:48 10° SSW daylight
23 Apr - 03:58:28 10° SSE 04:01:58 18° ESE 04:05:38 10° ENE visible
23 Apr - 05:39:05 10° SW 05:43:40 31° WNW 05:48:34 10° N daylight
23 Apr - 16:17:50 10° NNW 16:23:08 74° WSW 16:27:57 10° SSE daylight
